Budapest Ferihegy, Hungary

6:25 PM CEST on July 28, 2017 (GMT +0200)
Ferihegy

Weather History for LHBP - August, 2013

Change the Weather History Date:

Wednesday, August 14, 2013

  Actual Average Record
Temperature  
Mean Temperature 68 °F -  
Max Temperature 75 °F 73 °F 100 °F (2003)
Min Temperature 60 °F 53 °F 48 °F (1999)
Cooling Degree Days 4    
Growing Degree Days 18 (Base 50)    
Moisture  
Dew Point 53 °F    
Average Humidity 60    
Maximum Humidity 94    
Minimum Humidity 31    
Precipitation  
Precipitation 0.00 in - - ()
Sea Level Pressure  
Sea Level Pressure 30.10 in    
Wind  
Wind Speed 7 mph ()    
Max Wind Speed 14 mph    
Max Gust Speed -    
Visibility 6.2 miles    
Events Rain    
Averages and records for this station are not official NWS values.
T = Trace of Precipitation, MM = Missing Value Source: Averaged Metar Reports

Daily Weather History Graph

Daily Weather History Graph

Search for Another Location

Airport or City:

Trip Planner

Search our weather history database for the weather conditions in past years. The results will help you decide how hot, cold, wet, or windy it might be!

Date:

Astronomy

Aug. 14, 2013 Rise Set
Actual Time 5:37 AM CEST 7:56 PM CEST
Civil Twilight 5:03 AM CEST 8:30 PM CEST
Nautical Twilight 4:21 AM CEST 9:12 PM CEST
Astronomical Twilight 3:33 AM CEST 10:00 PM CEST
Moon 1:52 PM CEST (8/14) 11:28 PM CEST (8/14)
Length of Visible Light 15h 26m
Length of Day
14h 18m
Waxing Crescent, 50% of the Moon is Illuminated
Aug 14
Waxing Crescent
Aug 14
First Quarter
Aug 21
Full
Aug 28
Last Quarter
Sep 5
New

Hourly Weather History & Observations

Time (CEST) Temp. Dew Point Humidity Pressure Visibility Wind Dir Wind Speed Gust Speed Precip Events Conditions
12:00 AM 66.2 °F 55.4 °F 68% 30.04 in 6.2 mi NNW 13.8 mph - N/A   Mostly Cloudy
12:30 AM 66.2 °F 57.2 °F 73% 30.04 in 6.2 mi South 4.6 mph - N/A Rain Light Rain Showers
1:00 AM 64.4 °F 59.0 °F 83% 30.04 in 6.2 mi NNW 4.6 mph - N/A   Mostly Cloudy
1:30 AM 64.4 °F 60.8 °F 88% 30.04 in - Variable 2.3 mph - N/A   Clear
2:00 AM 64.4 °F 60.8 °F 88% 30.04 in - NNW 4.6 mph - N/A   Clear
2:30 AM 66.2 °F 60.8 °F 83% 30.04 in - Variable 3.5 mph - N/A   Clear
3:00 AM 66.2 °F 62.6 °F 88% 30.04 in 6.2 mi SW 4.6 mph - N/A Rain Light Rain Showers
3:30 AM 66.2 °F 60.8 °F 83% 30.04 in 6.2 mi West 5.8 mph - N/A   Mostly Cloudy
4:00 AM 66.2 °F 60.8 °F 83% 30.06 in 6.2 mi Variable 3.5 mph - N/A   Mostly Cloudy
4:30 AM 66.2 °F 60.8 °F 83% 30.06 in 6.2 mi Variable 2.3 mph - N/A Rain Light Rain Showers
5:00 AM 64.4 °F 60.8 °F 88% 30.06 in 6.2 mi NW 4.6 mph - N/A   Mostly Cloudy
5:30 AM 64.4 °F 60.8 °F 88% 30.06 in 6.2 mi NNW 4.6 mph - N/A   Mostly Cloudy
6:00 AM 64.4 °F 59.0 °F 83% 30.06 in 6.2 mi NW 6.9 mph - N/A   Mostly Cloudy
6:30 AM 64.4 °F 59.0 °F 83% 30.09 in 6.2 mi NW 5.8 mph - N/A   Mostly Cloudy
7:00 AM 66.2 °F 57.2 °F 73% 30.09 in - Variable 3.5 mph - N/A   Clear
7:30 AM 66.2 °F 57.2 °F 73% 30.09 in - Variable 3.5 mph - N/A   Clear
8:00 AM 68.0 °F 53.6 °F 60% 30.09 in - NW 6.9 mph - N/A   Clear
8:30 AM 68.0 °F 53.6 °F 60% 30.09 in - NW 6.9 mph - N/A   Clear
9:00 AM 68.0 °F 51.8 °F 56% 30.09 in - NNW 5.8 mph - N/A   Clear
9:30 AM 69.8 °F 51.8 °F 53% 30.09 in - NNW 5.8 mph - N/A   Clear
10:00 AM 71.6 °F 50.0 °F 46% 30.09 in - NW 5.8 mph - N/A   Clear
10:30 AM 71.6 °F 48.2 °F 43% 30.12 in - NW 9.2 mph - N/A   Clear
11:00 AM 71.6 °F 46.4 °F 41% 30.12 in - NW 9.2 mph - N/A   Clear
11:30 AM 73.4 °F 44.6 °F 36% 30.12 in - NW 10.4 mph - N/A   Clear
12:00 PM 73.4 °F 44.6 °F 36% 30.12 in - NW 10.4 mph - N/A   Clear
12:30 PM 73.4 °F 44.6 °F 36% 30.12 in - NW 9.2 mph - N/A   Clear
1:00 PM 73.4 °F 44.6 °F 36% 30.12 in - NNW 10.4 mph - N/A   Clear
1:30 PM 75.2 °F 42.8 °F 31% 30.12 in - WNW 12.7 mph - N/A   Clear
2:00 PM 73.4 °F 44.6 °F 36% 30.12 in - NW 12.7 mph - N/A   Clear
2:30 PM 75.2 °F 46.4 °F 36% 30.12 in - WNW 13.8 mph - N/A   Clear
3:00 PM 73.4 °F 46.4 °F 38% 30.12 in - NW 11.5 mph - N/A   Clear
3:30 PM 75.2 °F 44.6 °F 34% 30.12 in - NW 13.8 mph - N/A   Clear
4:00 PM 75.2 °F 44.6 °F 34% 30.12 in - NW 12.7 mph - N/A   Clear
4:30 PM 75.2 °F 44.6 °F 34% 30.12 in - NW 12.7 mph - N/A   Clear
5:00 PM 73.4 °F 44.6 °F 36% 30.09 in - NNW 11.5 mph - N/A   Clear
5:30 PM 73.4 °F 44.6 °F 36% 30.09 in - NW 13.8 mph - N/A   Clear
6:00 PM 73.4 °F 44.6 °F 36% 30.09 in - NW 12.7 mph - N/A   Clear
6:30 PM 73.4 °F 46.4 °F 38% 30.09 in 6.2 mi NW 11.5 mph - N/A Rain Light Rain
7:00 PM 71.6 °F 46.4 °F 41% 30.12 in 6.2 mi WNW 9.2 mph - N/A   Mostly Cloudy
7:30 PM 69.8 °F 50.0 °F 49% 30.12 in 6.2 mi WNW 12.7 mph - N/A Rain Light Rain
8:00 PM 64.4 °F 55.4 °F 73% 30.12 in 6.2 mi WNW 10.4 mph - N/A Rain Light Rain
8:30 PM 66.2 °F 51.8 °F 60% 30.15 in 6.2 mi WSW 5.8 mph - N/A Rain Light Rain
9:00 PM 64.4 °F 55.4 °F 73% 30.15 in 6.2 mi West 4.6 mph - N/A Rain Light Rain
10:00 PM 62.6 °F 57.2 °F 82% 30.15 in 6.2 mi Variable 2.3 mph - N/A Rain Light Rain
10:30 PM 62.6 °F 57.2 °F 82% 30.15 in 6.2 mi Variable 1.2 mph - N/A   Light Drizzle
11:00 PM 62.6 °F 59.0 °F 88% 30.15 in 6.2 mi Calm Calm - N/A   Light Drizzle
11:30 PM 60.8 °F 59.0 °F 94% 30.18 in - Variable 3.5 mph - N/A   Clear